Showing default

KINEIS-3E, 61222

Orbit data source: Space-Track

KINEIS-3E, 61222 is a French payload satellite in SSO that was launched on Fri, 20 Sep 2024 UTC via an ELECTRON launch vehicle from the Rocket Lab Launch Complex (RLLC). Payload-class satellites include a variety of spacecraft equipped with specific instruments for various scientific and technological missions. These include communications satellites like Starlink; space stations such as the ISS; scientific satellites like the Hubble; Earth observation satellites from companies like Planet Labs, Umbra, and HawkEye 360; GPS; miniature CubeSats for education and research; and military/defense satellites.

Loading next visibility...
Identifier
61222, 2024-172C
Orbit
SSO
Country
Flag of FRFR
Related business
Manufacturer
KINEIS
Mission
Operational Commercial Communications
Bus & Motor
CUBESAT 16U, Unknown motor
Mass
28 kg wet, 28 kg dry
Launch date (UTC)
2024-09-20 (2 years ago)
Launch vehicle
ELECTRON
Launch site
Rocket Lab Launch Complex (RLLC)
Object type
Payload
Rocket body
Debris
Shape & HBR
Box + 2 Pan + 1 Ant, 1.0 m
Radar Cross Section
0.229 m², Medium (>0.1 m² and < 1m²)

Expand to show TLE details & history
Last TLE update: 15 hours ago

TLE from 15 hours ago
0 KINEIS-3E
1 61222U 24172C   26171.24275924  .00001370  00000-0  22478-3 0  9998
2 61222  98.0427 261.1029 0001891 108.8158 251.3255 14.72256910 93806
Epoch: 2026-06-20T05:49Z
TLE epoch observation values (Epoch: 2026-06-20T05:49:34.398Z)
Latitude
0.00004°
Longitude
-94.75062°
Altitude
657.305 km
Speed
7.529 km/s
True Right ascension
17h 24m 24s
True Declination
0° 00' 00"
Sunlit
Object was in full shadow at epoch
Visualization orbit readout
Latitude
Unknown
Longitude
Unknown
Altitude
Unknown
Speed
Unknown
Apparent Right ascension
Unknown
Apparent Declination
Unknown
Sunlit
N/A
Visualization observer readout
Local Sidereal Time
07:17:35
Azimuth
Unknown
Elevation
Unknown
Doppler factor
Unknown
Orbital elements
Apogee altitude
652.259 km
Perigee altitude
649.601 km
Semi-major axis
7,029.067 km
Eccentricity
0.00019
Inclination
98.0427°
RAAN
261.1029°
Arg. of periapsis
108.8158°
True anomaly
251.30497°
Mean anomaly
251.3255°
Eccentric anomaly
251.31524°
Mean motion
3.68296 °/min
Orbital period
97.75 mins
BSTAR
0.00022478
Loading maneuver chart data...
Computing Atmospheric mass density...
Loading historical data...
Loading historical data...
Loading historical data...
Loading historical data...
Loading historical data...
Loading historical data...
Loading historical data...

Documentation

Showing up to 5 results
|